Time,TemperatureF,DewpointF,PressureIn,WindDirection,WindDirectionDegrees,WindSpeedMPH,WindSpeedGustMPH,Humidity,HourlyPrecipIn,Conditions,Clouds,dailyrainin,SolarRadiationWatts/m^2,SoftwareType,DateUTC
2013-02-06 00:01:00,35.3,25.4,29.91,SSE,167,10.0,11.0,67,0.00,,,0.00,0,Wunderground v.1.15,2013-02-06 06:01:00,
2013-02-06 00:06:00,35.5,25.6,29.91,SSE,155,12.0,15.0,67,0.00,,,0.00,0,Wunderground v.1.15,2013-02-06 06:06:00,
2013-02-06 00:11:00,35.4,25.5,29.91,SSE,162,12.0,12.0,67,0.00,,,0.00,0,Wunderground v.1.15,2013-02-06 06:11:00,
2013-02-06 00:16:00,35.5,25.6,29.91,South,174,11.0,12.0,67,0.00,,,0.00,0,Wunderground v.1.15,2013-02-06 06:16:00,
2013-02-06 00:21:00,35.6,25.4,29.90,SSE,160,9.0,13.0,66,0.00,,,0.00,0,Wunderground v.1.15,2013-02-06 06:21:00,
2013-02-06 00:26:00,35.6,25.4,29.91,SSE,162,12.0,13.0,66,0.00,,,0.00,0,Wunderground v.1.15,2013-02-06 06:26:00,
2013-02-06 00:31:00,35.7,25.4,29.90,SSE,161,13.0,19.0,66,0.00,,,0.00,0,Wunderground v.1.15,2013-02-06 06:31:00,
2013-02-06 00:36:00,35.6,25.4,29.90,SSE,148,13.0,19.0,66,0.00,,,0.00,0,Wunderground v.1.15,2013-02-06 06:36:00,
2013-02-06 00:41:00,35.6,25.7,29.90,SE,144,9.0,14.0,67,0.00,,,0.00,0,Wunderground v.1.15,2013-02-06 06:41:00,
2013-02-06 00:46:00,35.3,25.4,29.90,SSE,153,10.0,14.0,67,0.00,,,0.00,0,Wunderground v.1.15,2013-02-06 06:46:00,
2013-02-06 00:51:00,35.2,25.7,29.89,SSE,150,9.0,10.0,68,0.00,,,0.00,0,Wunderground v.1.15,2013-02-06 06:51:00,
2013-02-06 00:56:00,35.2,25.7,29.89,SE,144,11.0,11.0,68,0.00,,,0.00,0,Wunderground v.1.15,2013-02-06 06:56:00,
2013-02-06 01:01:00,35.3,25.4,29.89,SSE,153,9.0,11.0,67,0.00,,,0.00,0,Wunderground v.1.15,2013-02-06 07:01:00,
2013-02-06 01:07:00,35.6,25.7,29.88,SSE,165,10.0,13.0,67,0.00,,,0.00,0,Wunderground v.1.15,2013-02-06 07:07:00,
2013-02-06 01:12:00,35.8,25.9,29.88,SE,146,13.0,13.0,67,0.00,,,0.00,0,Wunderground v.1.15,2013-02-06 07:12:00,
2013-02-06 01:17:00,35.9,25.6,29.88,SSE,155,11.0,15.0,66,0.00,,,0.00,0,Wunderground v.1.15,2013-02-06 07:17:00,
2013-02-06 01:22:00,35.9,26.0,29.87,SSE,155,9.0,12.0,67,0.00,,,0.00,0,Wunderground v.1.15,2013-02-06 07:22:00,
2013-02-06 01:27:00,35.8,25.5,29.87,SSE,150,12.0,12.0,66,0.00,,,0.00,0,Wunderground v.1.15,2013-02-06 07:27:00,
2013-02-06 01:33:00,35.9,25.6,29.87,SSE,161,9.0,10.0,66,0.00,,,0.00,0,Wunderground v.1.15,2013-02-06 07:33:00,
2013-02-06 01:38:00,36.1,25.8,29.86,SE,144,12.0,12.0,66,0.00,,,0.00,0,Wunderground v.1.15,2013-02-06 07:38:00,
2013-02-06 01:43:00,36.2,25.6,29.86,SSE,150,9.0,10.0,65,0.00,,,0.00,0,Wunderground v.1.15,2013-02-06 07:43:00,
2013-02-06 01:48:00,36.6,25.9,29.86,SSE,168,9.0,12.0,65,0.00,,,0.00,0,Wunderground v.1.15,2013-02-06 07:48:00,
2013-02-06 01:53:00,36.8,25.8,29.86,SSE,165,16.0,16.0,64,0.00,,,0.00,0,Wunderground v.1.15,2013-02-06 07:53:00,
2013-02-06 01:59:00,36.9,25.9,29.86,SSE,153,15.0,16.0,64,0.00,,,0.00,0,Wunderground v.1.15,2013-02-06 07:59:00,
2013-02-06 02:04:00,36.7,25.7,29.86,SSE,167,13.0,15.0,64,0.00,,,0.00,0,Wunderground v.1.15,2013-02-06 08:04:00,
2013-02-06 02:09:00,36.8,25.8,29.86,SSE,161,11.0,16.0,64,0.00,,,0.00,0,Wunderground v.1.15,2013-02-06 08:09:00,
2013-02-06 02:14:00,36.6,25.9,29.86,SSE,158,13.0,15.0,65,0.00,,,0.00,0,Wunderground v.1.15,2013-02-06 08:14:00,
2013-02-06 02:19:00,36.5,25.8,29.85,SSE,158,12.0,15.0,65,0.00,,,0.00,0,Wunderground v.1.15,2013-02-06 08:19:00,
2013-02-06 02:24:00,36.3,26.0,29.85,SSE,159,9.0,17.0,66,0.00,,,0.00,0,Wunderground v.1.15,2013-02-06 08:24:00,
2013-02-06 02:29:00,36.3,26.0,29.85,SSE,162,13.0,19.0,66,0.00,,,0.00,0,Wunderground v.1.15,2013-02-06 08:29:00,
2013-02-06 02:34:00,36.1,26.2,29.85,South,169,10.0,16.0,67,0.00,,,0.00,0,Wunderground v.1.15,2013-02-06 08:34:00,
2013-02-06 02:39:00,35.7,26.2,29.85,SSE,167,11.0,16.0,68,0.00,,,0.00,0,Wunderground v.1.15,2013-02-06 08:39:00,
2013-02-06 02:44:00,35.6,26.1,29.86,SSE,166,10.0,14.0,68,0.00,,,0.00,0,Wunderground v.1.15,2013-02-06 08:44:00,
2013-02-06 02:49:00,35.5,26.0,29.85,SSE,166,10.0,16.0,68,0.00,,,0.00,0,Wunderground v.1.15,2013-02-06 08:49:00,
2013-02-06 02:54:00,35.3,26.1,29.85,SSE,161,9.0,16.0,69,0.00,,,0.00,0,Wunderground v.1.15,2013-02-06 08:54:00,
2013-02-06 02:59:00,35.1,26.3,29.84,South,173,12.0,18.0,70,0.00,,,0.00,0,Wunderground v.1.15,2013-02-06 08:59:00,
2013-02-06 03:04:00,34.8,26.0,29.84,South,174,11.0,16.0,70,0.00,,,0.00,0,Wunderground v.1.15,2013-02-06 09:04:00,
2013-02-06 03:09:00,34.7,26.3,29.84,SSE,167,9.0,16.0,71,0.00,,,0.00,0,Wunderground v.1.15,2013-02-06 09:09:00,
2013-02-06 03:14:00,34.4,26.0,29.84,South,171,9.0,15.0,71,0.00,,,0.00,0,Wunderground v.1.15,2013-02-06 09:14:00,
2013-02-06 03:19:00,34.4,26.3,29.83,South,178,11.0,16.0,72,0.00,,,0.00,0,Wunderground v.1.15,2013-02-06 09:19:00,
2013-02-06 03:24:00,34.3,26.2,29.83,South,175,9.0,12.0,72,0.00,,,0.00,0,Wunderground v.1.15,2013-02-06 09:24:00,
2013-02-06 03:29:00,34.4,26.6,29.83,South,173,10.0,13.0,73,0.00,,,0.00,0,Wunderground v.1.15,2013-02-06 09:29:00,
2013-02-06 03:34:00,34.4,27.0,29.83,South,173,9.0,15.0,74,0.00,,,0.00,0,Wunderground v.1.15,2013-02-06 09:34:00,
2013-02-06 03:39:00,34.3,26.9,29.82,South,191,9.0,15.0,74,0.00,,,0.00,0,Wunderground v.1.15,2013-02-06 09:39:00,
2013-02-06 03:44:00,34.3,26.9,29.82,South,187,11.0,14.0,74,0.00,,,0.00,0,Wunderground v.1.15,2013-02-06 09:44:00,
2013-02-06 03:49:00,34.2,26.8,29.82,South,180,12.0,16.0,74,0.00,,,0.00,0,Wunderground v.1.15,2013-02-06 09:49:00,
2013-02-06 03:54:00,34.0,26.9,29.82,South,178,13.0,15.0,75,0.00,,,0.00,0,Wunderground v.1.15,2013-02-06 09:54:00,
2013-02-06 03:59:00,33.8,26.7,29.81,South,180,8.0,15.0,75,0.00,,,0.00,0,Wunderground v.1.15,2013-02-06 09:59:00,
2013-02-06 04:04:00,33.7,26.6,29.81,South,188,12.0,13.0,75,0.00,,,0.00,0,Wunderground v.1.15,2013-02-06 10:04:00,
2013-02-06 04:09:00,33.7,26.9,29.81,SSE,167,12.0,16.0,76,0.00,,,0.00,0,Wunderground v.1.15,2013-02-06 10:09:00,
2013-02-06 04:14:00,33.9,27.1,29.81,South,184,15.0,16.0,76,0.00,,,0.00,0,Wunderground v.1.15,2013-02-06 10:14:00,
2013-02-06 04:19:00,34.2,27.4,29.81,South,183,16.0,18.0,76,0.00,,,0.00,0,Wunderground v.1.15,2013-02-06 10:19:00,
2013-02-06 04:24:00,34.2,27.4,29.81,South,169,11.0,17.0,76,0.00,,,0.00,0,Wunderground v.1.15,2013-02-06 10:24:00,
2013-02-06 04:29:00,34.2,27.4,29.80,South,181,17.0,18.0,76,0.00,,,0.00,0,Wunderground v.1.15,2013-02-06 10:29:00,
2013-02-06 04:34:00,33.9,27.1,29.80,South,184,15.0,15.0,76,0.00,,,0.00,0,Wunderground v.1.15,2013-02-06 10:34:00,
2013-02-06 04:39:00,33.5,27.1,29.80,South,180,9.0,18.0,77,0.00,,,0.00,0,Wunderground v.1.15,2013-02-06 10:39:00,
2013-02-06 04:44:00,33.4,27.3,29.80,South,181,10.0,13.0,78,0.00,,,0.00,0,Wunderground v.1.15,2013-02-06 10:44:00,
2013-02-06 04:49:00,33.4,27.3,29.80,South,188,8.0,13.0,78,0.00,,,0.00,0,Wunderground v.1.15,2013-02-06 10:49:00,
2013-02-06 04:54:00,33.4,27.6,29.80,South,186,11.0,15.0,79,0.00,,,0.00,0,Wunderground v.1.15,2013-02-06 10:54:00,
2013-02-06 04:59:00,33.8,28.0,29.80,South,190,10.0,15.0,79,0.00,,,0.00,0,Wunderground v.1.15,2013-02-06 10:59:00,
2013-02-06 05:04:00,34.6,28.8,29.80,South,176,17.0,19.0,79,0.00,,,0.00,0,Wunderground v.1.15,2013-02-06 11:04:00,
2013-02-06 05:10:00,35.1,28.9,29.79,SSW,202,14.0,19.0,78,0.00,,,0.00,0,Wunderground v.1.15,2013-02-06 11:10:00,
2013-02-06 05:14:00,35.3,28.8,29.80,South,191,16.0,18.0,77,0.00,,,0.00,0,Wunderground v.1.15,2013-02-06 11:14:00,
2013-02-06 05:19:00,35.3,28.8,29.79,SSW,192,17.0,18.0,77,0.00,,,0.00,0,Wunderground v.1.15,2013-02-06 11:19:00,
2013-02-06 05:24:00,35.3,28.8,29.79,South,184,14.0,18.0,77,0.00,,,0.00,0,Wunderground v.1.15,2013-02-06 11:24:00,
2013-02-06 05:29:00,35.3,28.8,29.79,South,186,10.0,20.0,77,0.00,,,0.00,0,Wunderground v.1.15,2013-02-06 11:29:00,
2013-02-06 05:34:00,35.2,28.4,29.79,South,190,16.0,19.0,76,0.00,,,0.00,0,Wunderground v.1.15,2013-02-06 11:34:00,
2013-02-06 05:39:00,35.3,28.5,29.79,South,180,11.0,19.0,76,0.00,,,0.00,0,Wunderground v.1.15,2013-02-06 11:39:00,
2013-02-06 05:44:00,35.2,28.4,29.79,South,182,16.0,21.0,76,0.00,,,0.00,0,Wunderground v.1.15,2013-02-06 11:44:00,
2013-02-06 05:49:00,35.2,28.4,29.79,South,181,10.0,21.0,76,0.00,,,0.00,0,Wunderground v.1.15,2013-02-06 11:49:00,
2013-02-06 05:54:00,35.2,28.4,29.78,SSW,200,11.0,18.0,76,0.00,,,0.00,0,Wunderground v.1.15,2013-02-06 11:54:00,
2013-02-06 05:59:00,35.4,28.6,29.78,SSW,198,14.0,18.0,76,0.00,,,0.00,0,Wunderground v.1.15,2013-02-06 11:59:00,
2013-02-06 06:04:00,35.9,28.7,29.78,South,186,15.0,22.0,75,0.00,,,0.00,0,Wunderground v.1.15,2013-02-06 12:04:00,
2013-02-06 06:09:00,36.4,28.9,29.77,SSW,193,10.0,22.0,74,0.00,,,0.00,0,Wunderground v.1.15,2013-02-06 12:09:00,
2013-02-06 06:15:00,36.6,28.8,29.77,South,184,12.0,19.0,73,0.00,,,0.00,0,Wunderground v.1.15,2013-02-06 12:15:00,
2013-02-06 06:20:00,37.0,29.1,29.77,South,188,15.0,22.0,73,0.00,,,0.00,0,Wunderground v.1.15,2013-02-06 12:20:00,
2013-02-06 06:25:00,37.3,29.1,29.77,SSW,203,18.0,22.0,72,0.00,,,0.00,0,Wunderground v.1.15,2013-02-06 12:25:00,
2013-02-06 06:30:00,37.4,28.9,29.77,SW,215,18.0,24.0,71,0.00,,,0.00,0,Wunderground v.1.15,2013-02-06 12:30:00,
2013-02-06 06:35:00,37.5,28.9,29.76,SSW,203,17.0,25.0,71,0.00,,,0.00,0,Wunderground v.1.15,2013-02-06 12:35:00,
2013-02-06 06:40:00,37.5,28.9,29.76,SSW,194,19.0,29.0,71,0.00,,,0.00,0,Wunderground v.1.15,2013-02-06 12:40:00,
2013-02-06 06:45:00,37.4,28.9,29.76,SSW,194,15.0,26.0,71,0.00,,,0.00,0,Wunderground v.1.15,2013-02-06 12:45:00,
2013-02-06 06:50:00,37.5,28.9,29.76,SSW,208,14.0,26.0,71,0.00,,,0.00,0,Wunderground v.1.15,2013-02-06 12:50:00,
2013-02-06 06:55:00,37.4,28.9,29.76,SSW,205,15.0,22.0,71,0.00,,,0.00,0,Wunderground v.1.15,2013-02-06 12:55:00,
2013-02-06 07:00:00,37.5,28.9,29.76,SSW,213,16.0,22.0,71,0.00,,,0.00,0,Wunderground v.1.15,2013-02-06 13:00:00,
2013-02-06 07:05:00,37.6,29.0,29.76,SSW,201,17.0,24.0,71,0.00,,,0.00,0,Wunderground v.1.15,2013-02-06 13:05:00,
2013-02-06 07:10:00,37.6,29.0,29.76,SSW,200,11.0,24.0,71,0.00,,,0.00,0,Wunderground v.1.15,2013-02-06 13:10:00,
2013-02-06 07:15:00,37.5,28.9,29.76,SSW,207,18.0,21.0,71,0.00,,,0.00,0,Wunderground v.1.15,2013-02-06 13:15:00,
2013-02-06 07:20:00,37.5,28.9,29.76,SSW,209,12.0,21.0,71,0.00,,,0.00,0,Wunderground v.1.15,2013-02-06 13:20:00,
2013-02-06 07:25:00,37.3,28.8,29.76,South,188,18.0,19.0,71,0.00,,,0.00,0,Wunderground v.1.15,2013-02-06 13:25:00,
2013-02-06 07:29:00,37.3,29.1,29.76,SSW,198,11.0,20.0,72,0.00,,,0.00,0,Wunderground v.1.15,2013-02-06 13:29:00,
2013-02-06 07:35:00,37.1,28.9,29.76,South,189,13.0,17.0,72,0.00,,,0.00,0,Wunderground v.1.15,2013-02-06 13:35:00,
2013-02-06 07:40:00,36.9,28.7,29.75,SSW,194,9.0,17.0,72,0.00,,,0.00,0,Wunderground v.1.15,2013-02-06 13:40:00,
2013-02-06 07:45:00,37.0,29.1,29.75,SSW,202,15.0,17.0,73,0.00,,,0.00,5,Wunderground v.1.15,2013-02-06 13:45:00,
2013-02-06 07:50:00,37.1,29.2,29.75,SSW,203,13.0,17.0,73,0.00,,,0.00,12,Wunderground v.1.15,2013-02-06 13:50:00,
2013-02-06 07:55:00,37.2,29.3,29.75,South,185,11.0,17.0,73,0.00,,,0.00,19,Wunderground v.1.15,2013-02-06 13:55:00,
2013-02-06 08:00:00,37.1,29.2,29.75,South,180,8.0,17.0,73,0.00,,,0.00,23,Wunderground v.1.15,2013-02-06 14:00:00,
2013-02-06 08:05:00,37.1,29.2,29.75,South,182,9.0,16.0,73,0.00,,,0.00,32,Wunderground v.1.15,2013-02-06 14:05:00,
2013-02-06 08:10:00,37.1,29.2,29.74,South,186,14.0,17.0,73,0.00,,,0.00,42,Wunderground v.1.15,2013-02-06 14:10:00,
2013-02-06 08:15:00,37.0,29.1,29.74,South,175,13.0,21.0,73,0.00,,,0.00,47,Wunderground v.1.15,2013-02-06 14:15:00,
2013-02-06 08:20:00,37.1,29.2,29.73,South,184,17.0,21.0,73,0.00,,,0.00,47,Wunderground v.1.15,2013-02-06 14:20:00,
2013-02-06 08:25:00,37.3,29.4,29.73,SSE,166,11.0,19.0,73,0.00,,,0.00,51,Wunderground v.1.15,2013-02-06 14:25:00,
2013-02-06 08:30:00,37.5,29.6,29.73,South,188,12.0,19.0,73,0.00,,,0.00,47,Wunderground v.1.15,2013-02-06 14:30:00,
2013-02-06 08:35:00,37.8,29.9,29.72,SSW,192,18.0,21.0,73,0.00,,,0.00,44,Wunderground v.1.15,2013-02-06 14:35:00,
2013-02-06 08:40:00,38.2,30.0,29.73,South,187,15.0,15.0,72,0.00,,,0.00,56,Wunderground v.1.15,2013-02-06 14:40:00,
2013-02-06 08:45:00,38.6,30.4,29.73,SSW,213,7.0,17.0,72,0.00,,,0.00,60,Wunderground v.1.15,2013-02-06 14:45:00,
2013-02-06 08:50:00,39.1,30.5,29.73,SW,214,4.0,10.0,71,0.00,,,0.00,49,Wunderground v.1.15,2013-02-06 14:50:00,
2013-02-06 08:55:00,39.4,30.8,29.74,SW,215,8.0,15.0,71,0.00,,,0.00,35,Wunderground v.1.15,2013-02-06 14:55:00,
2013-02-06 09:00:00,39.8,30.8,29.73,SSW,205,10.0,10.0,70,0.00,,,0.00,23,Wunderground v.1.15,2013-02-06 15:00:00,
2013-02-06 09:05:00,40.0,30.6,29.74,SSW,211,13.0,16.0,69,0.00,,,0.00,23,Wunderground v.1.15,2013-02-06 15:05:00,
2013-02-06 09:10:00,40.1,30.7,29.75,South,191,12.0,12.0,69,0.00,,,0.00,26,Wunderground v.1.15,2013-02-06 15:10:00,
2013-02-06 09:15:00,40.2,30.8,29.75,SSW,208,13.0,18.0,69,0.00,,,0.00,25,Wunderground v.1.15,2013-02-06 15:15:00,
2013-02-06 09:20:00,40.2,30.8,29.74,SSW,205,21.0,21.0,69,0.00,,,0.00,26,Wunderground v.1.15,2013-02-06 15:20:00,
2013-02-06 09:25:00,40.5,30.8,29.74,SSW,198,14.0,22.0,68,0.00,,,0.00,26,Wunderground v.1.15,2013-02-06 15:25:00,
2013-02-06 09:30:00,40.7,31.0,29.75,SSW,199,12.0,15.0,68,0.00,,,0.00,26,Wunderground v.1.15,2013-02-06 15:30:00,
2013-02-06 09:35:00,40.7,31.3,29.75,SSW,199,14.0,18.0,69,0.00,,,0.00,30,Wunderground v.1.15,2013-02-06 15:35:00,
2013-02-06 09:40:00,40.7,31.7,29.75,WSW,237,11.0,12.0,70,0.00,,,0.00,49,Wunderground v.1.15,2013-02-06 15:40:00,
2013-02-06 09:45:00,41.1,31.7,29.75,South,184,12.0,17.0,69,0.00,,,0.00,70,Wunderground v.1.15,2013-02-06 15:45:00,
2013-02-06 09:50:00,41.6,31.4,29.75,SSW,196,11.0,17.0,67,0.00,,,0.00,100,Wunderground v.1.15,2013-02-06 15:50:00,
2013-02-06 09:55:00,42.1,31.6,29.75,South,189,13.0,17.0,66,0.00,,,0.00,91,Wunderground v.1.15,2013-02-06 15:55:00,
2013-02-06 10:00:00,42.2,31.6,29.76,SSW,207,7.0,12.0,66,0.00,,,0.00,60,Wunderground v.1.15,2013-02-06 16:00:00,
2013-02-06 10:05:00,42.6,31.7,29.77,SSW,195,9.0,13.0,65,0.00,,,0.00,72,Wunderground v.1.15,2013-02-06 16:05:00,
2013-02-06 10:10:00,42.8,31.5,29.76,SSW,204,12.0,12.0,64,0.00,,,0.00,91,Wunderground v.1.15,2013-02-06 16:10:00,
2013-02-06 10:15:00,43.1,31.4,29.76,SSW,207,13.0,17.0,63,0.00,,,0.00,104,Wunderground v.1.15,2013-02-06 16:15:00,
2013-02-06 10:20:00,43.4,31.6,29.76,SSW,198,13.0,13.0,63,0.00,,,0.00,116,Wunderground v.1.15,2013-02-06 16:20:00,
2013-02-06 10:25:00,43.6,31.4,29.76,SSW,209,11.0,17.0,62,0.00,,,0.00,102,Wunderground v.1.15,2013-02-06 16:25:00,
2013-02-06 10:30:00,43.8,31.6,29.76,South,187,11.0,11.0,62,0.00,,,0.00,123,Wunderground v.1.15,2013-02-06 16:30:00,
2013-02-06 10:35:00,44.0,31.4,29.76,SSW,210,12.0,18.0,61,0.00,,,0.00,149,Wunderground v.1.15,2013-02-06 16:35:00,
2013-02-06 10:40:00,44.5,31.5,29.76,SSW,213,14.0,14.0,60,0.00,,,0.00,178,Wunderground v.1.15,2013-02-06 16:40:00,
2013-02-06 10:45:00,44.8,31.3,29.76,SSW,207,11.0,16.0,59,0.00,,,0.00,183,Wunderground v.1.15,2013-02-06 16:45:00,
2013-02-06 10:50:00,45.2,31.7,29.76,SSW,207,15.0,17.0,59,0.00,,,0.00,193,Wunderground v.1.15,2013-02-06 16:50:00,
2013-02-06 10:55:00,45.5,31.1,29.76,SSW,204,13.0,22.0,57,0.00,,,0.00,176,Wunderground v.1.15,2013-02-06 16:55:00,
2013-02-06 11:00:00,45.5,31.1,29.76,SW,215,14.0,15.0,57,0.00,,,0.00,165,Wunderground v.1.15,2013-02-06 17:00:00,
2013-02-06 11:05:00,45.5,31.1,29.76,SSW,198,16.0,20.0,57,0.00,,,0.00,156,Wunderground v.1.15,2013-02-06 17:05:00,
2013-02-06 11:10:00,45.5,31.1,29.76,SSW,201,15.0,15.0,57,0.00,,,0.00,160,Wunderground v.1.15,2013-02-06 17:10:00,
2013-02-06 11:15:00,45.6,31.2,29.76,SSW,198,9.0,18.0,57,0.00,,,0.00,158,Wunderground v.1.15,2013-02-06 17:15:00,
2013-02-06 11:20:00,45.7,31.3,29.76,SSW,192,14.0,17.0,57,0.00,,,0.00,183,Wunderground v.1.15,2013-02-06 17:20:00,
2013-02-06 11:25:00,45.8,31.0,29.75,SSW,192,17.0,20.0,56,0.00,,,0.00,181,Wunderground v.1.15,2013-02-06 17:25:00,
2013-02-06 11:30:00,45.7,30.9,29.75,SSW,200,16.0,20.0,56,0.00,,,0.00,169,Wunderground v.1.15,2013-02-06 17:30:00,
2013-02-06 11:35:00,45.8,31.0,29.74,SSW,200,16.0,23.0,56,0.00,,,0.00,148,Wunderground v.1.15,2013-02-06 17:35:00,
2013-02-06 11:40:00,45.6,30.8,29.75,South,186,18.0,18.0,56,0.00,,,0.00,128,Wunderground v.1.15,2013-02-06 17:40:00,
2013-02-06 11:46:00,45.5,30.7,29.74,SW,215,14.0,20.0,56,0.00,,,0.00,141,Wunderground v.1.15,2013-02-06 17:46:00,
2013-02-06 11:51:00,45.7,30.9,29.74,SSW,202,14.0,19.0,56,0.00,,,0.00,160,Wunderground v.1.15,2013-02-06 17:51:00,
2013-02-06 11:56:00,45.8,31.0,29.74,SSW,198,17.0,21.0,56,0.00,,,0.00,162,Wunderground v.1.15,2013-02-06 17:56:00,
2013-02-06 12:01:00,46.1,31.3,29.74,SSW,204,17.0,21.0,56,0.00,,,0.00,179,Wunderground v.1.15,2013-02-06 18:01:00,
2013-02-06 12:06:00,46.4,31.5,29.74,SW,227,16.0,24.0,56,0.00,,,0.00,179,Wunderground v.1.15,2013-02-06 18:06:00,
2013-02-06 12:11:00,46.9,32.0,29.73,SSW,204,20.0,22.0,56,0.00,,,0.00,174,Wunderground v.1.15,2013-02-06 18:11:00,
2013-02-06 12:16:00,47.1,31.7,29.73,SSW,197,15.0,25.0,55,0.00,,,0.00,167,Wunderground v.1.15,2013-02-06 18:16:00,
2013-02-06 12:21:00,47.4,32.0,29.73,SSW,207,15.0,19.0,55,0.00,,,0.00,176,Wunderground v.1.15,2013-02-06 18:21:00,
2013-02-06 12:26:00,47.6,32.2,29.73,South,186,13.0,22.0,55,0.00,,,0.00,188,Wunderground v.1.15,2013-02-06 18:26:00,
2013-02-06 12:31:00,48.1,32.2,29.72,South,187,19.0,19.0,54,0.00,,,0.00,221,Wunderground v.1.15,2013-02-06 18:31:00,
2013-02-06 12:36:00,48.3,32.4,29.72,South,191,11.0,22.0,54,0.00,,,0.00,181,Wunderground v.1.15,2013-02-06 18:36:00,
2013-02-06 12:41:00,48.5,32.6,29.71,SSW,200,16.0,17.0,54,0.00,,,0.00,190,Wunderground v.1.15,2013-02-06 18:41:00,
2013-02-06 12:46:00,48.9,32.5,29.71,SSW,195,12.0,17.0,53,0.00,,,0.00,202,Wunderground v.1.15,2013-02-06 18:46:00,
2013-02-06 12:51:00,49.1,32.7,29.71,SSW,212,13.0,17.0,53,0.00,,,0.00,186,Wunderground v.1.15,2013-02-06 18:51:00,
2013-02-06 12:56:00,49.3,32.9,29.70,SSW,205,13.0,21.0,53,0.00,,,0.00,188,Wunderground v.1.15,2013-02-06 18:56:00,
2013-02-06 13:01:00,49.7,33.2,29.70,South,191,16.0,16.0,53,0.00,,,0.00,178,Wunderground v.1.15,2013-02-06 19:01:00,
2013-02-06 13:06:00,49.8,32.9,29.71,SSW,201,11.0,16.0,52,0.00,,,0.00,167,Wunderground v.1.15,2013-02-06 19:06:00,
2013-02-06 13:11:00,50.2,33.7,29.71,SSW,195,11.0,16.0,53,0.00,,,0.00,142,Wunderground v.1.15,2013-02-06 19:11:00,
2013-02-06 13:16:00,50.3,33.3,29.72,SSW,210,6.0,16.0,52,0.00,,,0.00,134,Wunderground v.1.15,2013-02-06 19:16:00,
2013-02-06 13:21:00,50.4,33.9,29.71,SSW,210,9.0,9.0,53,0.00,,,0.00,146,Wunderground v.1.15,2013-02-06 19:21:00,
2013-02-06 13:26:00,50.4,33.9,29.71,SSW,205,10.0,14.0,53,0.00,,,0.00,167,Wunderground v.1.15,2013-02-06 19:26:00,
2013-02-06 13:31:00,50.5,33.5,29.71,SSW,207,9.0,13.0,52,0.00,,,0.00,174,Wunderground v.1.15,2013-02-06 19:31:00,
2013-02-06 13:36:00,50.6,33.6,29.71,SSW,193,8.0,15.0,52,0.00,,,0.00,171,Wunderground v.1.15,2013-02-06 19:36:00,
2013-02-06 13:41:00,50.9,33.9,29.71,SSW,204,13.0,16.0,52,0.00,,,0.00,176,Wunderground v.1.15,2013-02-06 19:41:00,
2013-02-06 13:46:00,51.1,34.1,29.70,SW,229,8.0,16.0,52,0.00,,,0.00,158,Wunderground v.1.15,2013-02-06 19:46:00,
2013-02-06 13:51:00,51.1,34.1,29.70,SW,224,8.0,10.0,52,0.00,,,0.00,141,Wunderground v.1.15,2013-02-06 19:51:00,
2013-02-06 13:56:00,51.1,34.1,29.70,SSW,207,6.0,14.0,52,0.00,,,0.00,118,Wunderground v.1.15,2013-02-06 19:56:00,
2013-02-06 14:02:00,51.2,34.2,29.70,SW,221,11.0,11.0,52,0.00,,,0.00,109,Wunderground v.1.15,2013-02-06 20:02:00,
2013-02-06 14:07:00,51.2,34.6,29.70,SW,219,7.0,13.0,53,0.00,,,0.00,109,Wunderground v.1.15,2013-02-06 20:07:00,
2013-02-06 14:12:00,51.2,34.6,29.69,SSW,210,7.0,9.0,53,0.00,,,0.00,111,Wunderground v.1.15,2013-02-06 20:12:00,
2013-02-06 14:17:00,51.2,34.6,29.69,SW,221,9.0,11.0,53,0.00,,,0.00,113,Wunderground v.1.15,2013-02-06 20:17:00,
2013-02-06 14:22:00,51.3,34.7,29.69,SSW,206,7.0,11.0,53,0.00,,,0.00,113,Wunderground v.1.15,2013-02-06 20:22:00,
2013-02-06 14:27:00,51.3,34.7,29.69,SSW,194,8.0,11.0,53,0.00,,,0.00,107,Wunderground v.1.15,2013-02-06 20:27:00,
2013-02-06 14:32:00,51.3,34.7,29.68,South,181,9.0,11.0,53,0.00,,,0.00,102,Wunderground v.1.15,2013-02-06 20:32:00,
2013-02-06 14:37:00,51.4,34.8,29.68,SSW,192,7.0,11.0,53,0.00,,,0.00,125,Wunderground v.1.15,2013-02-06 20:37:00,
2013-02-06 14:42:00,51.5,34.9,29.68,SSW,208,6.0,10.0,53,0.00,,,0.00,135,Wunderground v.1.15,2013-02-06 20:42:00,
2013-02-06 14:47:00,51.6,35.0,29.69,SW,218,7.0,10.0,53,0.00,,,0.00,148,Wunderground v.1.15,2013-02-06 20:47:00,
2013-02-06 14:52:00,51.8,35.2,29.69,SSW,209,6.0,6.0,53,0.00,,,0.00,146,Wunderground v.1.15,2013-02-06 20:52:00,
2013-02-06 14:57:00,51.9,34.8,29.69,SSW,205,6.0,7.0,52,0.00,,,0.00,139,Wunderground v.1.15,2013-02-06 20:57:00,
2013-02-06 15:02:00,51.9,34.8,29.69,South,191,6.0,7.0,52,0.00,,,0.00,130,Wunderground v.1.15,2013-02-06 21:02:00,
2013-02-06 15:07:00,51.9,34.8,29.69,SSW,209,4.0,7.0,52,0.00,,,0.00,127,Wunderground v.1.15,2013-02-06 21:07:00,
2013-02-06 15:12:00,51.9,34.8,29.69,SSW,209,1.0,5.0,52,0.00,,,0.00,118,Wunderground v.1.15,2013-02-06 21:12:00,
2013-02-06 15:17:00,51.9,34.8,29.69,SSW,209,4.0,5.0,52,0.00,,,0.00,105,Wunderground v.1.15,2013-02-06 21:17:00,
2013-02-06 15:22:00,51.9,34.8,29.69,SSW,209,3.0,4.0,52,0.00,,,0.00,95,Wunderground v.1.15,2013-02-06 21:22:00,
2013-02-06 15:27:00,51.7,34.6,29.69,SSW,209,0.0,5.0,52,0.00,,,0.00,93,Wunderground v.1.15,2013-02-06 21:27:00,
2013-02-06 15:32:00,51.6,35.0,29.69,SSW,209,2.0,2.0,53,0.00,,,0.00,88,Wunderground v.1.15,2013-02-06 21:32:00,
2013-02-06 15:37:00,51.6,35.0,29.69,SSW,209,1.0,2.0,53,0.00,,,0.00,83,Wunderground v.1.15,2013-02-06 21:37:00,
2013-02-06 15:42:00,51.4,34.8,29.70,SSW,209,3.0,3.0,53,0.00,,,0.00,77,Wunderground v.1.15,2013-02-06 21:42:00,
2013-02-06 15:47:00,51.1,35.0,29.70,SSE,167,4.0,5.0,54,0.00,,,0.00,74,Wunderground v.1.15,2013-02-06 21:47:00,
2013-02-06 15:52:00,50.8,35.2,29.70,SSE,167,0.0,3.0,55,0.00,,,0.00,65,Wunderground v.1.15,2013-02-06 21:52:00,
2013-02-06 15:57:00,50.7,35.1,29.70,SSE,167,0.0,3.0,55,0.00,,,0.00,60,Wunderground v.1.15,2013-02-06 21:57:00,
2013-02-06 16:02:00,50.8,35.2,29.70,SSE,167,2.0,2.0,55,0.00,,,0.00,54,Wunderground v.1.15,2013-02-06 22:02:00,
2013-02-06 16:07:00,50.6,35.5,29.70,SSE,167,0.0,2.0,56,0.00,,,0.00,49,Wunderground v.1.15,2013-02-06 22:07:00,
2013-02-06 16:12:00,50.4,35.7,29.70,SSE,167,0.0,1.0,57,0.00,,,0.00,53,Wunderground v.1.15,2013-02-06 22:12:00,
2013-02-06 16:17:00,50.3,36.1,29.70,SSE,167,0.0,1.0,58,0.00,,,0.00,54,Wunderground v.1.15,2013-02-06 22:17:00,
2013-02-06 16:22:00,50.1,35.9,29.70,SSE,167,0.0,0.0,58,0.00,,,0.00,58,Wunderground v.1.15,2013-02-06 22:22:00,
2013-02-06 16:27:00,50.1,35.9,29.70,SSE,167,0.0,0.0,58,0.00,,,0.00,60,Wunderground v.1.15,2013-02-06 22:27:00,
2013-02-06 16:32:00,49.8,35.6,29.71,SSE,167,3.0,3.0,58,0.00,,,0.00,56,Wunderground v.1.15,2013-02-06 22:32:00,
2013-02-06 16:37:00,49.1,35.8,29.71,SSE,167,0.0,3.0,60,0.00,,,0.00,53,Wunderground v.1.15,2013-02-06 22:37:00,
2013-02-06 16:42:00,49.1,35.8,29.71,SSE,167,0.0,1.0,60,0.00,,,0.00,47,Wunderground v.1.15,2013-02-06 22:42:00,
2013-02-06 16:47:00,49.0,35.7,29.71,SSE,167,0.0,1.0,60,0.00,,,0.00,40,Wunderground v.1.15,2013-02-06 22:47:00,
2013-02-06 16:52:00,49.0,35.7,29.71,SSE,167,1.0,1.0,60,0.00,,,0.00,37,Wunderground v.1.15,2013-02-06 22:52:00,
2013-02-06 16:57:00,48.7,35.8,29.72,SSE,167,1.0,2.0,61,0.00,,,0.00,30,Wunderground v.1.15,2013-02-06 22:57:00,
2013-02-06 17:02:00,48.5,35.7,29.72,SSE,167,3.0,3.0,61,0.00,,,0.00,28,Wunderground v.1.15,2013-02-06 23:02:00,
2013-02-06 17:07:00,48.3,35.5,29.72,SSE,167,0.0,3.0,61,0.00,,,0.00,25,Wunderground v.1.15,2013-02-06 23:07:00,
2013-02-06 17:12:00,48.0,35.2,29.72,SSE,167,1.0,1.0,61,0.00,,,0.00,21,Wunderground v.1.15,2013-02-06 23:12:00,
2013-02-06 17:17:00,47.5,35.1,29.73,SSE,167,1.0,2.0,62,0.00,,,0.00,12,Wunderground v.1.15,2013-02-06 23:17:00,
2013-02-06 17:22:00,47.1,34.7,29.73,SSE,167,2.0,3.0,62,0.00,,,0.00,9,Wunderground v.1.15,2013-02-06 23:22:00,
2013-02-06 17:27:00,46.8,34.9,29.73,SSE,167,1.0,3.0,63,0.00,,,0.00,12,Wunderground v.1.15,2013-02-06 23:27:00,
2013-02-06 17:32:00,46.6,34.3,29.73,SSE,167,2.0,3.0,62,0.00,,,0.00,9,Wunderground v.1.15,2013-02-06 23:32:00,
2013-02-06 17:37:00,46.4,34.1,29.73,SSE,167,2.0,3.0,62,0.00,,,0.00,7,Wunderground v.1.15,2013-02-06 23:37:00,
2013-02-06 17:42:00,46.0,34.1,29.73,SSE,167,2.0,3.0,63,0.00,,,0.00,0,Wunderground v.1.15,2013-02-06 23:42:00,
2013-02-06 17:47:00,45.6,33.7,29.73,SSE,167,0.0,3.0,63,0.00,,,0.00,0,Wunderground v.1.15,2013-02-06 23:47:00,
2013-02-06 17:52:00,45.2,33.3,29.74,SSE,167,2.0,2.0,63,0.00,,,0.00,0,Wunderground v.1.15,2013-02-06 23:52:00,
2013-02-06 17:57:00,44.5,32.7,29.74,SSE,167,2.0,2.0,63,0.00,,,0.00,0,Wunderground v.1.15,2013-02-06 23:57:00,
2013-02-06 18:02:00,44.0,33.4,29.74,SSE,167,0.0,1.0,66,0.00,,,0.00,0,Wunderground v.1.15,2013-02-07 00:02:00,
2013-02-06 18:07:00,44.0,33.4,29.75,SSE,167,0.0,2.0,66,0.00,,,0.00,0,Wunderground v.1.15,2013-02-07 00:07:00,
2013-02-06 18:12:00,43.3,32.7,29.75,SSE,167,1.0,3.0,66,0.00,,,0.00,0,Wunderground v.1.15,2013-02-07 00:12:00,
2013-02-06 18:17:00,43.2,33.3,29.75,SSE,167,2.0,3.0,68,0.00,,,0.00,0,Wunderground v.1.15,2013-02-07 00:17:00,
2013-02-06 18:22:00,43.3,33.8,29.76,SSE,167,0.0,1.0,69,0.00,,,0.00,0,Wunderground v.1.15,2013-02-07 00:22:00,
2013-02-06 18:27:00,43.0,33.2,29.76,SSE,167,0.0,1.0,68,0.00,,,0.00,0,Wunderground v.1.15,2013-02-07 00:27:00,
2013-02-06 18:32:00,42.6,33.1,29.76,SSE,167,0.0,1.0,69,0.00,,,0.00,0,Wunderground v.1.15,2013-02-07 00:32:00,
2013-02-06 18:37:00,42.7,33.6,29.76,SSE,167,1.0,3.0,70,0.00,,,0.00,0,Wunderground v.1.15,2013-02-07 00:37:00,
2013-02-06 18:42:00,43.1,33.6,29.76,SSE,167,0.0,1.0,69,0.00,,,0.00,0,Wunderground v.1.15,2013-02-07 00:42:00,
2013-02-06 18:47:00,43.2,33.7,29.77,SSE,167,2.0,2.0,69,0.00,,,0.00,0,Wunderground v.1.15,2013-02-07 00:47:00,
2013-02-06 18:52:00,43.3,33.8,29.77,SSE,167,3.0,3.0,69,0.00,,,0.00,0,Wunderground v.1.15,2013-02-07 00:52:00,
2013-02-06 18:57:00,42.7,33.2,29.77,SSE,167,3.0,3.0,69,0.00,,,0.00,0,Wunderground v.1.15,2013-02-07 00:57:00,
2013-02-06 19:02:00,42.2,33.1,29.77,NW,311,4.0,6.0,70,0.00,,,0.00,0,Wunderground v.1.15,2013-02-07 01:02:00,
2013-02-06 19:07:00,42.1,33.4,29.77,North,349,4.0,8.0,71,0.00,,,0.00,0,Wunderground v.1.15,2013-02-07 01:07:00,
2013-02-06 19:12:00,42.5,33.8,29.78,NNW,327,3.0,6.0,71,0.00,,,0.00,0,Wunderground v.1.15,2013-02-07 01:12:00,
2013-02-06 19:17:00,42.8,33.3,29.78,NNW,340,2.0,6.0,69,0.00,,,0.00,0,Wunderground v.1.15,2013-02-07 01:17:00,
2013-02-06 19:22:00,42.9,32.7,29.78,North,355,3.0,6.0,67,0.00,,,0.00,0,Wunderground v.1.15,2013-02-07 01:22:00,
2013-02-06 19:27:00,43.0,32.4,29.78,NNE,15,5.0,9.0,66,0.00,,,0.00,0,Wunderground v.1.15,2013-02-07 01:27:00,
2013-02-06 19:32:00,42.9,31.9,29.78,North,9,6.0,9.0,65,0.00,,,0.00,0,Wunderground v.1.15,2013-02-07 01:32:00,
2013-02-06 19:37:00,42.9,31.6,29.78,North,360,6.0,9.0,64,0.00,,,0.00,0,Wunderground v.1.15,2013-02-07 01:37:00,
2013-02-06 19:42:00,42.8,31.5,29.79,North,355,5.0,7.0,64,0.00,,,0.00,0,Wunderground v.1.15,2013-02-07 01:42:00,
2013-02-06 19:47:00,42.8,31.5,29.79,North,355,7.0,8.0,64,0.00,,,0.00,0,Wunderground v.1.15,2013-02-07 01:47:00,
2013-02-06 19:52:00,42.7,31.4,29.79,North,9,6.0,9.0,64,0.00,,,0.00,0,Wunderground v.1.15,2013-02-07 01:52:00,
2013-02-06 19:57:00,42.7,31.4,29.79,North,360,4.0,9.0,64,0.00,,,0.00,0,Wunderground v.1.15,2013-02-07 01:57:00,
2013-02-06 20:02:00,42.4,31.5,29.80,North,5,5.0,7.0,65,0.00,,,0.00,0,Wunderground v.1.15,2013-02-07 02:02:00,
2013-02-06 20:07:00,42.3,31.4,29.80,North,355,2.0,9.0,65,0.00,,,0.00,0,Wunderground v.1.15,2013-02-07 02:07:00,
2013-02-06 20:12:00,42.3,31.4,29.80,North,360,4.0,8.0,65,0.00,,,0.00,0,Wunderground v.1.15,2013-02-07 02:12:00,
2013-02-06 20:17:00,42.1,31.6,29.81,North,360,5.0,8.0,66,0.00,,,0.00,0,Wunderground v.1.15,2013-02-07 02:17:00,
2013-02-06 20:22:00,41.9,31.4,29.81,North,349,2.0,6.0,66,0.00,,,0.00,0,Wunderground v.1.15,2013-02-07 02:22:00,
2013-02-06 20:27:00,41.9,31.4,29.81,North,9,6.0,7.0,66,0.00,,,0.00,0,Wunderground v.1.15,2013-02-07 02:27:00,
2013-02-06 20:32:00,41.9,31.4,29.81,North,355,3.0,5.0,66,0.00,,,0.00,0,Wunderground v.1.15,2013-02-07 02:32:00,
2013-02-06 20:37:00,41.7,31.5,29.81,North,355,2.0,5.0,67,0.00,,,0.00,0,Wunderground v.1.15,2013-02-07 02:37:00,
2013-02-06 20:42:00,41.3,31.5,29.81,NNW,346,5.0,6.0,68,0.00,,,0.00,0,Wunderground v.1.15,2013-02-07 02:42:00,
2013-02-06 20:47:00,41.0,31.2,29.81,NNW,344,5.0,6.0,68,0.00,,,0.00,0,Wunderground v.1.15,2013-02-07 02:47:00,
2013-02-06 20:52:00,40.8,31.4,29.81,NNW,341,6.0,8.0,69,0.00,,,0.00,0,Wunderground v.1.15,2013-02-07 02:52:00,
2013-02-06 20:57:00,40.8,31.4,29.81,NNW,335,7.0,8.0,69,0.00,,,0.00,0,Wunderground v.1.15,2013-02-07 02:57:00,
2013-02-06 21:02:00,40.7,31.7,29.82,NNW,341,4.0,8.0,70,0.00,,,0.00,0,Wunderground v.1.15,2013-02-07 03:02:00,
2013-02-06 21:07:00,40.7,31.7,29.82,North,349,10.0,10.0,70,0.00,,,0.00,0,Wunderground v.1.15,2013-02-07 03:07:00,
2013-02-06 21:12:00,40.7,31.7,29.82,North,355,5.0,10.0,70,0.00,,,0.00,0,Wunderground v.1.15,2013-02-07 03:12:00,
2013-02-06 21:17:00,40.7,31.7,29.82,NNW,337,8.0,10.0,70,0.00,,,0.00,0,Wunderground v.1.15,2013-02-07 03:17:00,
2013-02-06 21:22:00,40.7,31.7,29.82,North,350,6.0,12.0,70,0.00,,,0.00,0,Wunderground v.1.15,2013-02-07 03:22:00,
2013-02-06 21:27:00,40.8,31.8,29.82,NNW,347,8.0,14.0,70,0.00,,,0.00,0,Wunderground v.1.15,2013-02-07 03:27:00,
2013-02-06 21:32:00,40.9,31.9,29.82,North,5,7.0,13.0,70,0.00,,,0.00,0,Wunderground v.1.15,2013-02-07 03:32:00,
2013-02-06 21:37:00,40.8,31.8,29.82,North,5,9.0,14.0,70,0.00,,,0.00,0,Wunderground v.1.15,2013-02-07 03:37:00,
2013-02-06 21:42:00,40.5,31.5,29.83,NNW,343,7.0,10.0,70,0.00,,,0.00,0,Wunderground v.1.15,2013-02-07 03:42:00,
2013-02-06 21:47:00,40.2,31.5,29.83,NNW,343,9.0,11.0,71,0.00,,,0.00,0,Wunderground v.1.15,2013-02-07 03:47:00,
2013-02-06 21:52:00,39.9,31.3,29.83,North,5,6.0,10.0,71,0.00,,,0.00,0,Wunderground v.1.15,2013-02-07 03:52:00,
2013-02-06 21:57:00,39.7,31.4,29.83,North,351,3.0,10.0,72,0.00,,,0.00,0,Wunderground v.1.15,2013-02-07 03:57:00,
2013-02-06 22:02:00,39.5,31.2,29.83,North,360,3.0,9.0,72,0.00,,,0.00,0,Wunderground v.1.15,2013-02-07 04:02:00,
2013-02-06 22:07:00,39.3,31.0,29.83,NNW,345,3.0,10.0,72,0.00,,,0.00,0,Wunderground v.1.15,2013-02-07 04:07:00,
2013-02-06 22:12:00,39.1,31.2,29.84,North,360,4.0,9.0,73,0.00,,,0.00,0,Wunderground v.1.15,2013-02-07 04:12:00,
2013-02-06 22:18:00,39.0,31.1,29.84,NNW,346,6.0,10.0,73,0.00,,,0.00,0,Wunderground v.1.15,2013-02-07 04:18:00,
2013-02-06 22:23:00,38.9,31.0,29.84,NNW,327,7.0,8.0,73,0.00,,,0.00,0,Wunderground v.1.15,2013-02-07 04:23:00,
2013-02-06 22:28:00,38.7,31.1,29.84,NNW,338,7.0,10.0,74,0.00,,,0.00,0,Wunderground v.1.15,2013-02-07 04:28:00,
2013-02-06 22:33:00,38.4,30.8,29.84,NNW,347,5.0,9.0,74,0.00,,,0.00,0,Wunderground v.1.15,2013-02-07 04:33:00,
2013-02-06 22:38:00,38.2,30.6,29.84,NNW,346,10.0,13.0,74,0.00,,,0.00,0,Wunderground v.1.15,2013-02-07 04:38:00,
2013-02-06 22:43:00,38.0,30.8,29.84,North,349,8.0,12.0,75,0.00,,,0.00,0,Wunderground v.1.15,2013-02-07 04:43:00,
2013-02-06 22:48:00,37.8,30.6,29.84,North,360,7.0,12.0,75,0.00,,,0.00,0,Wunderground v.1.15,2013-02-07 04:48:00,
2013-02-06 22:53:00,37.8,30.6,29.84,North,355,8.0,15.0,75,0.00,,,0.00,0,Wunderground v.1.15,2013-02-07 04:53:00,
2013-02-06 22:58:00,37.7,30.5,29.84,NNW,331,8.0,15.0,75,0.00,,,0.00,0,Wunderground v.1.15,2013-02-07 04:58:00,
2013-02-06 23:00:00,37.6,30.4,29.84,NNW,338,10.0,15.0,75,0.00,,,0.00,0,Wunderground v.1.15,2013-02-07 05:00:00,
2013-02-06 23:01:00,37.6,30.4,29.84,NNW,344,12.0,13.0,75,0.00,,,0.00,0,Wunderground v.1.15,2013-02-07 05:01:00,
2013-02-06 23:06:00,37.6,30.7,29.85,NNW,330,15.0,15.0,76,0.00,,,0.00,0,Wunderground v.1.15,2013-02-07 05:06:00,
2013-02-06 23:11:00,37.5,30.6,29.85,NNW,348,10.0,14.0,76,0.00,,,0.00,0,Wunderground v.1.15,2013-02-07 05:11:00,
2013-02-06 23:16:00,37.6,30.7,29.85,North,355,11.0,15.0,76,0.00,,,0.00,0,Wunderground v.1.15,2013-02-07 05:16:00,
2013-02-06 23:21:00,37.5,30.6,29.85,NNW,336,12.0,12.0,76,0.00,,,0.00,0,Wunderground v.1.15,2013-02-07 05:21:00,
2013-02-06 23:26:00,37.4,30.5,29.85,North,350,8.0,16.0,76,0.00,,,0.00,0,Wunderground v.1.15,2013-02-07 05:26:00,
2013-02-06 23:31:00,37.2,30.3,29.85,NW,323,10.0,12.0,76,0.00,,,0.00,0,Wunderground v.1.15,2013-02-07 05:31:00,
2013-02-06 23:36:00,37.1,30.2,29.85,NNW,338,6.0,13.0,76,0.00,,,0.00,0,Wunderground v.1.15,2013-02-07 05:36:00,
2013-02-06 23:41:00,36.8,30.3,29.85,NNW,328,7.0,11.0,77,0.00,,,0.00,0,Wunderground v.1.15,2013-02-07 05:41:00,
2013-02-06 23:46:00,36.7,30.2,29.85,North,355,12.0,15.0,77,0.00,,,0.00,0,Wunderground v.1.15,2013-02-07 05:46:00,
2013-02-06 23:51:00,36.7,30.2,29.86,NNW,331,9.0,13.0,77,0.00,,,0.00,0,Wunderground v.1.15,2013-02-07 05:51:00,
2013-02-06 23:56:00,36.8,30.3,29.86,North,355,8.0,15.0,77,0.00,,,0.00,0,Wunderground v.1.15,2013-02-07 05:56:00,